• En Colombia
  • Lista de países
  • Para 7 días
  • Temperatura del agua
  • El tiempo en el mapa
  • Informadores
  • user-avatar
    Iniciar sesión

    Tiempo cada hora Pluzhine

    Hoy, 15 Diciembre, Domingo

    Tiempo Temperatura Precipitaciones Viento Presión Humedad
    00:00 +1°C° 0 mm 0 mps 664 mmHg 78%
    01:00 0°C° 0 mm 0 mps 664 mmHg 74%
    02:00 +1°C° 0 mm 0 mps 664 mmHg 72%
    03:00 +2°C° 0 mm 1 mps 665 mmHg 71%
    04:00 +2°C° 0 mm 1 mps 665 mmHg 69%
    05:00 +2°C° 0 mm 1 mps 665 mmHg 67%
    06:00 +2°C° 0 mm 1 mps 666 mmHg 65%
    07:00 +2°C° 0 mm 1 mps 666 mmHg 62%
    08:00 +4°C° 0 mm 1 mps 667 mmHg 60%
    09:00 +5°C° 0 mm 1 mps 667 mmHg 58%
    10:00 +7°C° 0 mm 1 mps 668 mmHg 56%
    11:00 +8°C° 0 mm 1 mps 668 mmHg 55%
    12:00 +9°C° 0 mm 1 mps 668 mmHg 55%
    13:00 +10°C° 0 mm 1 mps 669 mmHg 55%
    14:00 +9°C° 0 mm 1 mps 668 mmHg 59%
    15:00 +7°C° 0 mm 1 mps 668 mmHg 62%
    16:00 +4°C° 0 mm 2 mps 668 mmHg 66%
    17:00 +4°C° 0 mm 2 mps 669 mmHg 64%
    18:00 +3°C° 0 mm 2 mps 669 mmHg 63%
    19:00 +3°C° 0 mm 2 mps 669 mmHg 61%
    20:00 +3°C° 0 mm 2 mps 669 mmHg 61%
    21:00 +2°C° 0 mm 2 mps 669 mmHg 61%
    22:00 +2°C° 0 mm 2 mps 670 mmHg 62%
    23:00 +2°C° 0 mm 2 mps 670 mmHg 63%

    Mañana, 16 Diciembre, Lunes

    Tiempo Temperatura Precipitaciones Viento Presión Humedad
    00:00 +2°C° 0 mm 2 mps 670 mmHg 65%
    01:00 +2°C° 0 mm 2 mps 670 mmHg 67%
    02:00 +2°C° 0 mm 2 mps 670 mmHg 68%
    03:00 +2°C° 0 mm 2 mps 670 mmHg 70%
    04:00 +2°C° 0 mm 2 mps 670 mmHg 72%
    05:00 +2°C° 0 mm 2 mps 670 mmHg 74%
    06:00 +2°C° 0 mm 2 mps 671 mmHg 75%
    07:00 +1°C° 0 mm 2 mps 671 mmHg 76%
    08:00 +3°C° 0 mm 2 mps 672 mmHg 75%
    09:00 +5°C° 0 mm 2 mps 672 mmHg 74%
    10:00 +6°C° 0 mm 2 mps 673 mmHg 72%
    11:00 +7°C° 0 mm 2 mps 673 mmHg 73%
    12:00 +8°C° 0 mm 2 mps 672 mmHg 74%
    13:00 +9°C° 0 mm 2 mps 672 mmHg 74%
    14:00 +8°C° 0 mm 2 mps 672 mmHg 80%
    15:00 +7°C° 0 mm 2 mps 672 mmHg 86%
    16:00 +5°C° 0 mm 2 mps 671 mmHg 92%
    17:00 +5°C° 0 mm 2 mps 671 mmHg 92%
    18:00 +4°C° 0 mm 2 mps 671 mmHg 93%
    19:00 +3°C° 0 mm 2 mps 671 mmHg 93%
    20:00 +3°C° 0 mm 2 mps 671 mmHg 92%
    21:00 +3°C° 0 mm 2 mps 671 mmHg 90%
    22:00 +3°C° 0 mm 2 mps 671 mmHg 89%
    23:00 +3°C° 0 mm 2 mps 671 mmHg 88%

    Pasado mañana, 17 Diciembre, Martes

    Tiempo Temperatura Precipitaciones Viento Presión Humedad
    00:00 +3°C° 0 mm 2 mps 671 mmHg 86%
    01:00 +3°C° 0 mm 2 mps 671 mmHg 85%
    02:00 +3°C° 0 mm 2 mps 670 mmHg 85%
    03:00 +3°C° 0 mm 2 mps 670 mmHg 86%
    04:00 +3°C° 0 mm 2 mps 670 mmHg 86%
    05:00 +3°C° 0 mm 2 mps 670 mmHg 87%
    06:00 +3°C° 0 mm 2 mps 670 mmHg 87%
    07:00 +3°C° 0 mm 2 mps 671 mmHg 88%
    08:00 +5°C° 0 mm 2 mps 671 mmHg 84%
    09:00 +6°C° 0 mm 2 mps 672 mmHg 80%
    10:00 +9°C° 0 mm 1 mps 672 mmHg 76%
    11:00 +10°C° 0 mm 1 mps 672 mmHg 73%
    12:00 +11°C° 0 mm 1 mps 672 mmHg 70%
    13:00 +12°C° 0 mm 1 mps 672 mmHg 67%
    14:00 +10°C° 0 mm 2 mps 672 mmHg 73%
    15:00 +8°C° 0 mm 2 mps 671 mmHg 79%
    16:00 +7°C° 0 mm 2 mps 671 mmHg 84%
    17:00 +6°C° 0 mm 2 mps 671 mmHg 84%
    18:00 +5°C° 0 mm 2 mps 671 mmHg 83%
    19:00 +5°C° 0 mm 2 mps 671 mmHg 82%
    20:00 +4°C° 0 mm 2 mps 671 mmHg 81%
    21:00 +4°C° 0 mm 2 mps 671 mmHg 80%
    22:00 +4°C° 0 mm 2 mps 671 mmHg 79%
    23:00 +4°C° 0 mm 2 mps 671 mmHg 79%

    18 Diciembre, Miércoles

    Tiempo Temperatura Precipitaciones Viento Presión Humedad
    00:00 +4°C° 0 mm 2 mps 671 mmHg 78%
    01:00 +3°C° 0 mm 2 mps 671 mmHg 78%
    02:00 +3°C° 0 mm 2 mps 670 mmHg 79%
    03:00 +3°C° 0 mm 2 mps 670 mmHg 80%
    04:00 +3°C° 0 mm 2 mps 670 mmHg 81%
    05:00 +3°C° 0 mm 2 mps 670 mmHg 83%
    06:00 +3°C° 0 mm 2 mps 670 mmHg 85%
    07:00 +3°C° 0 mm 2 mps 670 mmHg 86%
    08:00 +4°C° 0 mm 2 mps 671 mmHg 83%
    09:00 +6°C° 0 mm 2 mps 671 mmHg 80%
    10:00 +7°C° 0 mm 2 mps 671 mmHg 76%
    11:00 +8°C° 0 mm 2 mps 671 mmHg 74%
    12:00 +9°C° 0 mm 2 mps 671 mmHg 72%
    13:00 +10°C° 0 mm 2 mps 671 mmHg 71%
    14:00 +8°C° 0 mm 2 mps 670 mmHg 76%
    15:00 +7°C° 0 mm 2 mps 670 mmHg 81%
    16:00 +6°C° 0 mm 2 mps 670 mmHg 87%
    17:00 +5°C° 0 mm 2 mps 670 mmHg 88%
    18:00 +5°C° 0 mm 2 mps 669 mmHg 90%
    19:00 +4°C° 0 mm 2 mps 669 mmHg 91%
    20:00 +4°C° 0 mm 2 mps 669 mmHg 91%
    21:00 +4°C° 0 mm 2 mps 669 mmHg 91%
    22:00 +4°C° 0 mm 2 mps 669 mmHg 92%
    23:00 +4°C° 0 mm 2 mps 669 mmHg 91%

    19 Diciembre, Jueves

    Tiempo Temperatura Precipitaciones Viento Presión Humedad
    00:00 +4°C° 0 mm 2 mps 668 mmHg 91%
    01:00 +4°C° 0 mm 2 mps 668 mmHg 91%
    02:00 +4°C° 0.1 mm 2 mps 668 mmHg 91%
    03:00 +4°C° 0.1 mm 2 mps 667 mmHg 91%
    04:00 +4°C° 0.1 mm 2 mps 667 mmHg 91%
    05:00 +4°C° 0.7 mm 2 mps 667 mmHg 91%
    06:00 +3°C° 0.7 mm 3 mps 667 mmHg 91%
    07:00 +3°C° 0.7 mm 3 mps 667 mmHg 91%
    08:00 +4°C° 2.7 mm 2 mps 667 mmHg 91%
    09:00 +6°C° 2.7 mm 1 mps 667 mmHg 92%
    10:00 +6°C° 2.7 mm 1 mps 668 mmHg 93%
    11:00 +6°C° 1 mm 1 mps 667 mmHg 91%
    12:00 +6°C° 1 mm 2 mps 667 mmHg 90%
    13:00 +5°C° 1 mm 3 mps 667 mmHg 88%
    14:00 +6°C° 0 mm 2 mps 667 mmHg 89%
    15:00 +5°C° 0 mm 2 mps 667 mmHg 90%
    16:00 +4°C° 0 mm 2 mps 667 mmHg 91%
    17:00 +4°C° 0 mm 2 mps 666 mmHg 92%
    18:00 +4°C° 0 mm 2 mps 666 mmHg 93%
    19:00 +3°C° 0 mm 2 mps 666 mmHg 93%
    20:00 +3°C° 0 mm 2 mps 666 mmHg 93%
    21:00 +3°C° 0 mm 2 mps 666 mmHg 93%
    22:00 +3°C° 0 mm 2 mps 666 mmHg 93%
    23:00 +3°C° 0.1 mm 2 mps 666 mmHg 93%

    20 Diciembre, Viernes

    Tiempo Temperatura Precipitaciones Viento Presión Humedad
    00:00 +3°C° 0.1 mm 2 mps 666 mmHg 94%
    01:00 +4°C° 0.1 mm 2 mps 665 mmHg 94%
    02:00 +4°C° 0 mm 2 mps 665 mmHg 93%
    03:00 +4°C° 0 mm 2 mps 665 mmHg 93%
    04:00 +4°C° 0 mm 2 mps 665 mmHg 93%
    05:00 +4°C° 0.1 mm 2 mps 665 mmHg 93%
    06:00 +4°C° 0.1 mm 2 mps 665 mmHg 93%
    07:00 +4°C° 0.1 mm 2 mps 665 mmHg 93%
    08:00 +5°C° 0.4 mm 2 mps 665 mmHg 91%
    09:00 +5°C° 0.4 mm 3 mps 665 mmHg 90%
    10:00 +7°C° 0.4 mm 3 mps 665 mmHg 88%
    11:00 +7°C° 0.3 mm 3 mps 665 mmHg 87%
    12:00 +8°C° 0.3 mm 3 mps 664 mmHg 86%
    13:00 +7°C° 0.3 mm 4 mps 664 mmHg 86%
    14:00 +7°C° 0.1 mm 4 mps 664 mmHg 86%
    15:00 +7°C° 0.1 mm 4 mps 664 mmHg 87%
    16:00 +6°C° 0.1 mm 4 mps 664 mmHg 88%
    17:00 +6°C° 0 mm 4 mps 664 mmHg 88%
    18:00 +6°C° 0 mm 4 mps 663 mmHg 89%
    19:00 +6°C° 0 mm 4 mps 663 mmHg 89%
    20:00 +6°C° 0 mm 4 mps 663 mmHg 89%
    21:00 +6°C° 0 mm 4 mps 662 mmHg 90%
    22:00 +6°C° 0 mm 4 mps 662 mmHg 90%
    23:00 +6°C° 0.1 mm 5 mps 661 mmHg 90%
    Mostrar más